Regional Weather Roundup
Issued by NWS

Home | Current Version | Previous Version | Text Only | Print | Product List | Glossary On
Versions: 1 2 3 4 5 6 7 8 9 10 11 12 13 14 15 16 17 18 19 20 21 22 23 24 25 26 27 28 29 30 31 32 33 34 35 36 37 38 39 40 41 42 43 44 45 46 47 48 49 50
000
ASPQ40 PGUM 272310
RWRPQ
WEATHER ROUNDUP FOR THE MARIANAS AND MICRONESIA
NATIONAL WEATHER SERVICE TIYAN GU
900 AM CHST SAT FEB 28 2015

GUZ001>004-280000-
MARIANA ISLANDS-

CITY           SKY/WX    TMP DP  RH WIND       PRES   REMARKS
GUAM AIRPORT   MOSUNNY   82  73  74 E12       29.95R
ANDERSEN AFB   LGT RAIN  77  72  83 NE12      29.94
ROTA AIRPORT   NOT AVBL
TINIAN AP      NOT AVBL
SAIPAN AP      MOSUNNY   81  72  74 E18G25    29.96R

$$

PMZ161-280000-
REPUBLIC OF PALAU-

CITY           SKY/WX    TMP DP  RH WIND       PRES   REMARKS
KOROR AP       PTSUNNY   82  75  78 NE9G20    29.87R
KOROR WSO      NOT AVBL

$$

PMZ171>174-280000-
FEDERATED STATES OF MICRONESIA-

CITY           SKY/WX    TMP DP  RH WIND       PRES   REMARKS
YAP AIRPORT    NOT AVBL
CHUUK AP       NOT AVBL
POHNPEI AP     CLOUDY    86  77  74 E12       29.79  HX  97
POHNPEI WSO    NOT AVBL
KOSRAE AP      CLOUDY    81  77  89 E6        29.81F

$$

PMZ181-280000-
REPUBLIC OF THE MARSHALL ISLANDS-

CITY           SKY/WX    TMP DP  RH WIND       PRES   REMARKS
KWAJALEIN AP   MOSUNNY   84  73  70 NE21G26   29.85S HX  91
MAJURO AP      PTSUNNY   82  77  83 E17       29.79S HX  91
MAJURO WSO     MOSUNNY   84  77  79 NE13      29.81S HX  94

$$




USA.gov is the U.S. government's official web portal to all federal, state and local government web resources and services.